SOYUZ-MS 16 (45476 NORAD) Tracking and Keplerian Element Data

This shows tracking and keplerian element data for the satellite.

Feedback or suggestion? Click here.




ElementValue
Catalog45476
NameSOYUZ-MS 16
Epoch Orbit23439
Epoch Day184.515883
Epoch Year2020
RAAN272.5904
Inclination51.6449
Eccentricity0.0002533
Argument of Perigee106.3683
Mean Anonmoly346.9884
Mean Motion15.49475761
Decay Rate5.01E-06
L11 45476U 20023A 20184.51588300 .00000501 00000-0 17015-4 0 9992
L22 45476 51.6449 272.5904 0002533 106.3683 346.9884 15.49475761234398

Live tracking and technical data element details for SOYUZ-MS 16 (NORAD 45476). SOYUZ-MS 16 can be tracked NOW for your location showing map with azimuth and elevation plus other details from your city location.

Track the satellite on the map from your city or location and see movement details for azimuth, elevation, latitude, longitude, range, height, and movement on the map or in text.







IsCatalogInMostPopularTable: catalog: 45476, numindb: 40
Update: records affected: 1



GetName: 45476 SOYUZ-MS 16

Hit Count: updated at: Fri, 03 Jul 2020 16:03:57 GMT